Weather History for Millville, NJ

Change the Weather History Date:

Sunday, February 3, 2013

  Actual Average Record
Temperature  
Mean Temperature 26 °F -  
Max Temperature 34 °F 42 °F 63 °F (2006)
Min Temperature 19 °F 24 °F 1 °F (1961)
Degree Days  
Heating Degree Days 38    
Moisture  
Dew Point 22 °F    
Average Humidity 84    
Maximum Humidity 96    
Minimum Humidity 59    
Precipitation  
Precipitation 0.08 in - - ()
Sea Level Pressure  
Sea Level Pressure 29.92 in    
Wind  
Wind Speed 2 mph (NW)    
Max Wind Speed 17 mph    
Max Gust Speed 24 mph    
Visibility 7 miles    
Events Snow    
Averages and records for this station are not official NWS values.
T = Trace of Precipitation, MM = Missing Value Source: NWS Daily Summary

Daily Weather History Graph

Daily Weather History Graph

Search for Another Location

Airport:

Trip Planner

Search our weather history database for the weather conditions in past years. The results will help you decide how hot, cold, wet, or windy it might be!

Date:

Astronomy

Feb. 03, 2013 Rise Set
Actual Time 7:05 AM EST 5:23 PM EST
Civil Twilight 6:37 AM EST 5:51 PM EST
Nautical Twilight 6:05 AM EST 6:23 PM EST
Astronomical Twilight 5:33 AM EST 6:55 PM EST
Moon 12:30 AM EST (2/3) 10:59 AM EST (2/3)
Length of Visible Light 11h 14m
Length of Day
10h 18m
Waning Gibbous, 49% of the Moon is Illuminated
Feb 3
Waning Gibbous
Feb 10
New
Feb 17
First Quarter
Feb 25
Full
Mar 4
Last Quarter

Hourly Weather History & Observations

Time (EST) Temp. Windchill Dew Point Humidity Pressure Visibility Wind Dir Wind Speed Gust Speed Precip Events Conditions
12:10 AM 26.6 °F - 24.8 °F 93% 30.04 in 1.5 mi Calm Calm - 0.00 in Snow Light Snow
12:17 AM 26.6 °F - 24.8 °F 93% 30.04 in 2.0 mi Calm Calm - 0.00 in Snow Light Snow
12:28 AM 28.4 °F - 24.8 °F 86% 30.03 in 6.0 mi Calm Calm - 0.00 in Snow Light Snow
12:54 AM 27.0 °F - 25.0 °F 92% 30.01 in 9.0 mi Calm Calm - 0.00 in   Overcast
1:54 AM 26.1 °F - 24.1 °F 92% 29.99 in 7.0 mi Calm Calm - N/A   Overcast
2:54 AM 23.0 °F - 21.9 °F 96% 29.97 in 2.5 mi Calm Calm - N/A   Overcast
3:06 AM 23.0 °F - 21.2 °F 93% 29.96 in 4.0 mi Calm Calm - N/A   Overcast
3:20 AM 24.8 °F - 21.2 °F 86% 29.95 in 2.5 mi Calm Calm - N/A   Mostly Cloudy
3:28 AM 23.0 °F - 21.2 °F 93% 29.95 in 6.0 mi Calm Calm - N/A   Overcast
3:41 AM 23.0 °F - 21.2 °F 93% 29.94 in 6.0 mi Calm Calm - N/A   Overcast
3:54 AM 24.1 °F - 21.9 °F 91% 29.94 in 6.0 mi Calm Calm - N/A   Overcast
4:21 AM 26.6 °F - 24.8 °F 93% 29.94 in 6.0 mi Calm Calm - N/A   Overcast
4:36 AM 26.6 °F - 24.8 °F 93% 29.94 in 6.0 mi Calm Calm - N/A   Overcast
4:54 AM 26.1 °F - 24.1 °F 92% 29.93 in 6.0 mi Calm Calm - N/A   Overcast
5:54 AM 26.1 °F - 24.1 °F 92% 29.94 in 6.0 mi Calm Calm - N/A   Overcast
6:54 AM 24.1 °F 19.7 °F 23.0 °F 96% 29.94 in 7.0 mi NNW 3.5 mph - N/A   Overcast
7:54 AM 21.9 °F - 19.9 °F 92% 29.94 in 6.0 mi Calm Calm - N/A   Mostly Cloudy
8:10 AM 24.8 °F - 21.2 °F 86% 29.94 in 6.0 mi Calm Calm - N/A   Partly Cloudy
8:36 AM 23.0 °F - 21.2 °F 93% 29.95 in 5.0 mi Calm Calm - N/A   Mostly Cloudy
8:44 AM 23.0 °F - 21.2 °F 93% 29.95 in 6.0 mi Calm Calm - N/A   Scattered Clouds
8:54 AM 24.1 °F 19.7 °F 21.9 °F 91% 29.95 in 8.0 mi NE 3.5 mph - N/A   Partly Cloudy
9:49 AM 26.6 °F 18.2 °F 21.2 °F 80% 29.94 in 10.0 mi NE 8.1 mph - 0.04 in   Mostly Cloudy
9:54 AM 27.0 °F 19.5 °F 19.9 °F 75% 29.94 in 10.0 mi NE 6.9 mph - 0.04 in   Mostly Cloudy
10:24 AM 28.4 °F 22.2 °F 21.2 °F 74% 29.93 in 10.0 mi NE 5.8 mph - 0.01 in   Scattered Clouds
10:54 AM 28.9 °F 23.9 °F 21.0 °F 72% 29.91 in 10.0 mi NNW 4.6 mph - 0.04 in   Partly Cloudy
11:54 AM 28.9 °F 25.2 °F 21.9 °F 75% 29.88 in 10.0 mi NE 3.5 mph - N/A   Clear
12:54 PM 32.0 °F 24.8 °F 21.9 °F 66% 29.86 in 10.0 mi West 8.1 mph - N/A   Clear
1:54 PM 34.0 °F 28.8 °F 21.0 °F 59% 29.83 in 10.0 mi WNW 5.8 mph - N/A   Clear
2:54 PM 33.1 °F - 21.0 °F 61% 29.83 in 10.0 mi Calm Calm - N/A   Partly Cloudy
3:54 PM 33.1 °F 24.9 °F 21.0 °F 61% 29.83 in 10.0 mi West 10.4 mph - N/A   Overcast
4:54 PM 32.0 °F 24.2 °F 19.9 °F 61% 29.83 in 10.0 mi WNW 9.2 mph - N/A   Clear
5:54 PM 27.0 °F - 19.0 °F 72% 29.84 in 10.0 mi Calm Calm - N/A   Clear
6:54 PM 21.0 °F - 17.1 °F 85% 29.85 in 10.0 mi Calm Calm - N/A   Clear
7:54 PM 19.9 °F - 17.1 °F 89% 29.85 in 10.0 mi Calm Calm - N/A   Clear
8:54 PM 21.0 °F - 17.1 °F 85% 29.86 in 10.0 mi Calm Calm - N/A   Mostly Cloudy
9:54 PM 27.0 °F 23.0 °F 21.9 °F 81% 29.86 in 10.0 mi SW 3.5 mph - N/A   Overcast
10:35 PM 28.4 °F 24.6 °F 23.0 °F 80% 29.86 in 2.5 mi WSW 3.5 mph - 0.00 in Snow Light Snow
10:42 PM 28.4 °F 24.6 °F 24.8 °F 86% 29.86 in 5.0 mi SW 3.5 mph - 0.00 in Snow Light Snow
10:54 PM 28.9 °F 25.2 °F 24.1 °F 82% 29.86 in 8.0 mi WSW 3.5 mph - 0.00 in   Overcast
11:45 PM 30.2 °F 19.3 °F 26.6 °F 86% 29.87 in 4.0 mi West 15.0 mph 21.9 mph 0.00 in Snow Light Snow
11:54 PM 30.9 °F 19.4 °F 26.1 °F 82% 29.88 in 6.0 mi WNW 17.3 mph 24.2 mph 0.00 in   Haze